• In Latvia
  • List of Countries
  • For 7 days
  • Water Temperature
  • Satellite Maps
  • Weather Map
  • Weather Widgets
  • user-avatar
    Login

    Hourly Weather Gitega

    Today, 19 September, Wednesday

    Time Temperature Precipitation Wind Pressure Humidity
    00:00 +21°C° 0 mm 1 mps 623 mmHg 54%
    01:00 +20°C° 0 mm 1 mps 623 mmHg 55%
    02:00 +20°C° 0 mm 1 mps 622 mmHg 56%
    03:00 +20°C° 0 mm 1 mps 622 mmHg 57%
    04:00 +19°C° 0 mm 1 mps 622 mmHg 58%
    05:00 +19°C° 0 mm 1 mps 622 mmHg 58%
    06:00 +19°C° 0 mm 2 mps 623 mmHg 54%
    07:00 +21°C° 0 mm 2 mps 624 mmHg 50%
    08:00 +22°C° 0 mm 3 mps 624 mmHg 46%
    09:00 +25°C° 0 mm 3 mps 625 mmHg 41%
    10:00 +27°C° 0 mm 3 mps 626 mmHg 36%
    11:00 +29°C° 0 mm 3 mps 626 mmHg 31%
    12:00 +29°C° 0 mm 3 mps 625 mmHg 31%
    13:00 +28°C° 0 mm 2 mps 625 mmHg 30%
    14:00 +28°C° 0 mm 2 mps 624 mmHg 30%
    15:00 +28°C° 0 mm 2 mps 624 mmHg 31%
    16:00 +28°C° 0 mm 2 mps 624 mmHg 31%
    17:00 +28°C° 0 mm 2 mps 623 mmHg 31%
    18:00 +26°C° 0 mm 2 mps 623 mmHg 35%
    19:00 +24°C° 0 mm 1 mps 623 mmHg 39%
    20:00 +22°C° 0 mm 1 mps 623 mmHg 44%
    21:00 +22°C° 0 mm 1 mps 623 mmHg 45%
    22:00 +21°C° 0 mm 1 mps 623 mmHg 47%
    23:00 +21°C° 0 mm 1 mps 624 mmHg 49%

    Tomorrow, 20 September, Thursday

    Time Temperature Precipitation Wind Pressure Humidity
    00:00 +20°C° 0 mm 1 mps 623 mmHg 50%
    01:00 +20°C° 0 mm 1 mps 623 mmHg 51%
    02:00 +19°C° 0 mm 1 mps 622 mmHg 53%
    03:00 +19°C° 0 mm 1 mps 622 mmHg 55%
    04:00 +18°C° 0 mm 1 mps 622 mmHg 56%
    05:00 +18°C° 0 mm 1 mps 622 mmHg 58%
    06:00 +19°C° 0 mm 2 mps 623 mmHg 51%
    07:00 +21°C° 0 mm 2 mps 624 mmHg 45%
    08:00 +22°C° 0 mm 3 mps 625 mmHg 39%
    09:00 +25°C° 0 mm 3 mps 626 mmHg 37%
    10:00 +26°C° 0 mm 3 mps 626 mmHg 34%
    11:00 +28°C° 0 mm 3 mps 627 mmHg 32%
    12:00 +28°C° 0 mm 3 mps 626 mmHg 32%
    13:00 +28°C° 0 mm 3 mps 625 mmHg 32%
    14:00 +28°C° 0 mm 2 mps 624 mmHg 32%
    15:00 +28°C° 0 mm 2 mps 624 mmHg 33%
    16:00 +27°C° 0 mm 2 mps 624 mmHg 34%
    17:00 +27°C° 0 mm 2 mps 623 mmHg 34%
    18:00 +25°C° 0 mm 2 mps 623 mmHg 38%
    19:00 +24°C° 0 mm 1 mps 623 mmHg 42%
    20:00 +22°C° 0 mm 1 mps 624 mmHg 46%
    21:00 +22°C° 0 mm 1 mps 624 mmHg 48%
    22:00 +21°C° 0 mm 1 mps 624 mmHg 51%
    23:00 +20°C° 0 mm 1 mps 623 mmHg 53%

    Day after tomorrow, 21 September, Friday

    Time Temperature Precipitation Wind Pressure Humidity
    00:00 +20°C° 0 mm 1 mps 623 mmHg 55%
    01:00 +19°C° 0 mm 1 mps 622 mmHg 57%
    02:00 +19°C° 0 mm 1 mps 621 mmHg 58%
    03:00 +18°C° 0 mm 1 mps 621 mmHg 59%
    04:00 +18°C° 0 mm 1 mps 621 mmHg 60%
    05:00 +16°C° 0 mm 0 mps 621 mmHg 60%
    06:00 +20°C° 0 mm 1 mps 623 mmHg 55%
    07:00 +21°C° 0 mm 2 mps 624 mmHg 50%
    08:00 +24°C° 0 mm 3 mps 625 mmHg 45%
    09:00 +25°C° 0 mm 3 mps 626 mmHg 42%
    10:00 +27°C° 0 mm 3 mps 626 mmHg 38%
    11:00 +28°C° 0 mm 3 mps 626 mmHg 34%
    12:00 +28°C° 0 mm 3 mps 625 mmHg 34%
    13:00 +28°C° 0 mm 3 mps 625 mmHg 34%
    14:00 +28°C° 0 mm 2 mps 624 mmHg 34%
    15:00 +28°C° 0.1 mm 2 mps 623 mmHg 35%
    16:00 +27°C° 0.1 mm 2 mps 623 mmHg 36%
    17:00 +27°C° 0.1 mm 2 mps 623 mmHg 38%
    18:00 +26°C° 0.3 mm 1 mps 623 mmHg 41%
    19:00 +24°C° 0.3 mm 1 mps 623 mmHg 45%
    20:00 +23°C° 0.3 mm 1 mps 623 mmHg 49%
    21:00 +22°C° 0.1 mm 1 mps 623 mmHg 50%
    22:00 +22°C° 0.1 mm 1 mps 623 mmHg 52%
    23:00 +21°C° 0.1 mm 1 mps 623 mmHg 53%

    22 September, Saturday

    Time Temperature Precipitation Wind Pressure Humidity
    00:00 +21°C° 0 mm 1 mps 623 mmHg 53%
    01:00 +21°C° 0 mm 1 mps 622 mmHg 53%
    02:00 +19°C° 0 mm 0 mps 622 mmHg 53%
    03:00 +21°C° 0 mm 1 mps 622 mmHg 54%
    04:00 +20°C° 0 mm 1 mps 622 mmHg 55%
    05:00 +20°C° 0 mm 1 mps 622 mmHg 56%
    06:00 +20°C° 0 mm 2 mps 623 mmHg 53%
    07:00 +21°C° 0 mm 2 mps 624 mmHg 51%
    08:00 +22°C° 0 mm 3 mps 625 mmHg 48%
    09:00 +25°C° 0 mm 3 mps 626 mmHg 43%
    10:00 +27°C° 0 mm 3 mps 626 mmHg 38%
    11:00 +29°C° 0 mm 3 mps 626 mmHg 33%
    12:00 +29°C° 0 mm 3 mps 625 mmHg 33%
    13:00 +29°C° 0 mm 3 mps 624 mmHg 32%
    14:00 +29°C° 0 mm 2 mps 623 mmHg 32%
    15:00 +29°C° 0 mm 2 mps 623 mmHg 32%
    16:00 +28°C° 0 mm 2 mps 623 mmHg 33%
    17:00 +28°C° 0 mm 2 mps 623 mmHg 34%
    18:00 +26°C° 0 mm 1 mps 623 mmHg 37%
    19:00 +25°C° 0 mm 1 mps 623 mmHg 40%
    20:00 +23°C° 0 mm 1 mps 623 mmHg 44%
    21:00 +23°C° 0 mm 1 mps 623 mmHg 45%
    22:00 +22°C° 0 mm 1 mps 623 mmHg 47%
    23:00 +22°C° 0 mm 1 mps 623 mmHg 48%

    23 September, Sunday

    Time Temperature Precipitation Wind Pressure Humidity
    00:00 +21°C° 0 mm 1 mps 622 mmHg 49%
    01:00 +21°C° 0 mm 1 mps 622 mmHg 51%
    02:00 +20°C° 0 mm 1 mps 621 mmHg 52%
    03:00 +20°C° 0 mm 1 mps 621 mmHg 53%
    04:00 +19°C° 0 mm 1 mps 622 mmHg 54%
    05:00 +19°C° 0 mm 1 mps 622 mmHg 54%
    06:00 +20°C° 0 mm 2 mps 623 mmHg 49%
    07:00 +21°C° 0 mm 3 mps 624 mmHg 44%
    08:00 +24°C° 0 mm 3 mps 626 mmHg 39%
    09:00 +26°C° 0 mm 3 mps 626 mmHg 35%
    10:00 +28°C° 0 mm 3 mps 626 mmHg 32%
    11:00 +29°C° 0 mm 3 mps 626 mmHg 28%
    12:00 +30°C° 0 mm 3 mps 626 mmHg 27%
    13:00 +30°C° 0 mm 3 mps 625 mmHg 25%
    14:00 +31°C° 0 mm 3 mps 624 mmHg 24%
    15:00 +30°C° 0 mm 3 mps 624 mmHg 26%
    16:00 +29°C° 0 mm 2 mps 623 mmHg 27%
    17:00 +28°C° 0 mm 2 mps 623 mmHg 29%
    18:00 +27°C° 0 mm 1 mps 623 mmHg 32%
    19:00 +25°C° 0 mm 1 mps 624 mmHg 35%
    20:00 +22°C° 0 mm 0 mps 624 mmHg 38%
    21:00 +23°C° 0 mm 1 mps 623 mmHg 39%
    22:00 +23°C° 0 mm 1 mps 623 mmHg 41%
    23:00 +22°C° 0 mm 1 mps 623 mmHg 42%

    24 September, Monday

    Time Temperature Precipitation Wind Pressure Humidity
    00:00 +21°C° 0 mm 1 mps 623 mmHg 44%
    01:00 +21°C° 0 mm 1 mps 622 mmHg 46%
    02:00 +20°C° 0 mm 1 mps 621 mmHg 47%
    03:00 +20°C° 0 mm 1 mps 622 mmHg 49%
    04:00 +19°C° 0 mm 1 mps 622 mmHg 50%
    05:00 +19°C° 0 mm 1 mps 622 mmHg 51%
    06:00 +19°C° 0 mm 2 mps 623 mmHg 46%
    07:00 +21°C° 0 mm 3 mps 624 mmHg 42%
    08:00 +24°C° 0 mm 3 mps 626 mmHg 38%
    09:00 +26°C° 0 mm 3 mps 626 mmHg 35%
    10:00 +27°C° 0 mm 3 mps 626 mmHg 32%
    11:00 +29°C° 0 mm 3 mps 626 mmHg 30%
    12:00 +29°C° 0 mm 3 mps 625 mmHg 29%
    13:00 +29°C° 0 mm 2 mps 625 mmHg 29%
    14:00 +30°C° 0 mm 2 mps 624 mmHg 28%
    15:00 +29°C° 0 mm 2 mps 624 mmHg 30%
    16:00 +28°C° 0 mm 2 mps 624 mmHg 31%
    17:00 +28°C° 0 mm 2 mps 623 mmHg 32%
    18:00 +26°C° 0 mm 2 mps 623 mmHg 36%
    19:00 +25°C° 0 mm 1 mps 623 mmHg 40%
    20:00 +23°C° 0 mm 1 mps 623 mmHg 44%
    21:00 +22°C° 0 mm 1 mps 623 mmHg 45%
    22:00 +22°C° 0 mm 1 mps 623 mmHg 47%
    23:00 +21°C° 0 mm 1 mps 623 mmHg 48%
    Show more